Location: Launois
(49.6535°N, 4.5395°E)
Time: 07:51:03
(UTC+00:00)

CZ-2D R/B - Pass Details

Date: 16 August 2024
Orbit: 791 x 842 km, 98.8° (Epoch: 16 September)

Event Time Altitude Azimuth Distance (km) Brightness Sun altitude
Rises 02:43:30 0° 10° (N) 3,338 6.3 -15.7°
Reaches altitude 10° 02:45:56 10° 4° (N) 2,410 5.3 -15.4°
Maximum altitude 02:50:55 42° 295° (WNW) 1,154 2.7 -14.9°
Enters shadow 02:54:03 21° 236° (SW) 1,763 3.2 -14.5°
